Showing default

OPS 9347 (IDSCS 25), 3290

Orbit data source: Space-Track

OPS 9347 (IDSCS 25), 3290 is a payload satellite owned by SAMSO (US) in GEO that was launched on Thu, 13 Jun 1968 UTC via a TITAN IIIC launch vehicle from the Air Force Eastern Test Range (AFETR). Payloads include a variety of satellites, spacecraft, and rockets equipped with specific instruments for various scientific and technological missions. These include communications satellites like Starlink; space stations such as the ISS; scientific satellites like the Hubble; Earth observation satellites from companies like Planet Labs, Umbra, and HawkEye 360; GPS; miniature CubeSats for education and research; and military/defense satellites.

Not visible in the next 10 days
OPS 9347 (IDSCS 25) details
Identifier
3290, 1968-050G
Orbit
GEO
Last TLE update1 day ago
Origin
Flag of USSAMSO (US)
ManufacturerPhilco-Ford
MissionNon-operational Defense Communications
Bus & MotorIDCSP, Unknown motor
Mass45 kg wet, 45 kg dry
Launch date (UTC)
1968-06-13 (57 years ago)
Launch vehicle
TITAN IIIC
Launch site
Air Force Eastern Test Range (AFETR)
Object type
Payload
Rocket body
Debris
Shape & HBRPoly, 0.9 m
Radar Cross Section0.926 m², Medium (>0.1 m² and < 1m²)

Expand to show TLE details & history

TLE from 1 day ago
0 OPS 9347 (IDSCS 25)
1 03290U 68050G   24355.34424318 -.00000062  00000-0  00000-0 0  9990
2 03290   5.8220  58.8410 0059958 122.2182  46.5883  1.07034862 41317
Epoch: 2024-12-20T08:15Z
Definitive object data (Epoch: 2024-12-20T08:15:42.61Z)
Latitude1.06966°
Longitude14.87187°
Altitude33,825.725 km
Speed3.155 km/s
True Right ascension15h 12m 50s
True Declination1° 04' 07"
Sunlit
Object was in daylight at TLE epoch
Visualization TLE readout
Latitude-5.83555°
Longitude118.15517°
Altitude34,200.78 km
Speed3.126 km/s
Apparent Right ascension22h 18m 54s
Apparent Declination-10° 23' 55"
Sunlit
Object is in daylight
Visualization observer readout
Local Sidereal Time12:09:40
Azimuth47.394° ENE
Elevation-51.61°
Doppler factor1
Orbital elements
Apogee altitude34,234.357 km
Perigee altitude33,750.251 km
Semi-major axis40,370.441 km
Eccentricity0.0059958
Inclination5.822°
RAAN58.841°
Arg. of periapsis122.2182°
True anomaly47.08999°
Mean anomaly46.5883°
Eccentric anomaly46.83889°
Mean motion0.26758 °/min
BSTARUnknown
Orbital period1345.41 mins
Loading historical data...
3290 neighbors
Authenticating...
Loading maneuver chart data...
Loading historical data...
Loading historical data...
Loading historical data...
Loading historical data...
Loading historical data...
Loading historical data...
Loading historical data...

OPS 9347 (IDSCS 25) Visibility forecast

Observer location: undefined°, undefined

OPS 9347 (IDSCS 25) is not visible in the next 10 days
Span
Click to sort rows by Start time (UTC) header in descending order
Start Az.
Max El. time (UTC)
Max El. Az.
Max El.
End time (UTC)
End Az.
|